Location: Basse Rue
(50.5395°N, 3.7463°E)
Time: 22:56:33
(UTC+00:00)

Daily predictions for brighter satellites

Satellite Brightness Start Highest point End
(mag) Time Altitude Azimuth Time Altitude Azimuth Time Altitude Azimuth
SL-08 ROCKET BODY 4.4 16:07:07 10° N 16:13:05 69° ENE 16:19:07 10° SSE
Cosmos 1607 4.2 16:07:06 10° NW 16:13:22 81° SW 16:19:39 10° SSE
ARIANE 5 R/B 3.3 16:09:40 10° ESE 16:14:04 30° ENE 16:18:31 10° N
Cosmos 2279 Rocket 4.1 16:08:01 10° S 16:14:09 65° E 16:20:20 10° NNE
Cosmos 1825 Rocket 4.4 16:13:20 10° N 16:17:06 28° ENE 16:20:48 10° SE
Iridium 51 3.8 16:14:55 10° S 16:18:04 83° W 16:21:18 10° N
Cosmos 1758 Rocket 3.5 16:17:16 10° N 16:21:36 86° E 16:25:53 10° S
Lacrosse 4 Rocket 3.2 16:20:33 10° W 16:23:42 22° NW 16:26:50 10° NNE
Cosmos 2098 Rocket 3.3 16:19:26 10° S 16:23:46 61° E 16:28:51 10° NNE
USA 290 2.9 16:21:58 10° NNW 16:25:12 59° WSW 16:28:24 10° S
Cosmos 1782 2.5 16:23:07 10° S 16:26:43 79° E 16:30:19 10° NNE
Cosmos 1933 4.2 16:23:51 10° SSE 16:27:07 27° E 16:30:23 10° NNE
Cosmos 2227 Rocket 2.2 16:23:37 10° NNW 16:29:15 62° ENE 16:34:50 10° SE
Meteor 1-28 Rocket 3.3 16:26:35 10° NNE 16:29:48 42° E 16:32:58 10° S
Cosmos 2369 Rocket 4.1 16:28:39 10° W 16:32:40 19° NW 16:36:44 10° N
CBERS-1 4.0 16:27:46 10° SSE 16:32:52 81° ENE 16:38:00 10° NNW
Cosmos 783 Rocket 4.5 16:27:49 10° NNW 16:33:10 78° ENE 16:38:27 10° SSE
SPOT 1/Viking Rocket 4.5 16:33:45 10° ESE 16:37:57 26° ENE 16:42:10 10° N
SJ-12 4.4 16:36:00 10° SE 16:39:23 32° ENE 16:42:48 10° N
Cosmos 2180 Rocket 4.5 16:35:02 10° S 16:41:08 73° E 16:47:18 10° NNE
CENTAUR R/B 3.5 16:35:19 10° W 16:41:08 42° NNW 16:48:23 10° NE
Cosmos 1697 Rocket 3.0 16:36:26 10° S 16:41:49 51° ESE 16:47:14 10° NE
Cosmos 2360 4.3 16:37:40 10° SSW 16:43:24 84° WNW 16:49:12 10° NNE
CZ-2D R/B 3.4 16:41:52 10° SE 16:44:42 31° ENE 16:47:33 10° N
Cosmos 1538 Rocket 4.4 16:40:13 10° NNW 16:45:15 43° ENE 16:50:20 10° SE
NOSS 2-3 (C) 4.4 16:42:55 10° S 16:45:41 23° ESE 16:47:48 14° ENE
NOSS 3 (A) 4.4 16:44:13 10° NNW 16:46:24 43° NE 16:49:11 10° ESE
Cosmos 2266 Rocket 3.9 16:42:29 10° N 16:48:39 78° E 16:54:42 10° SSE
Cosmos 1656 4.2 16:45:42 10° SW 16:51:16 59° NW 16:56:55 10° NNE
Cosmos 1606 Rocket 3.8 16:48:45 10° SSE 16:53:00 49° E 16:57:18 10° NNE
Cosmos 1503 Rocket 4.0 16:50:06 10° SSW 16:55:21 86° ESE 17:00:34 10° NNE
Lacrosse 5 rocket 2.2 16:53:22 10° WNW 16:56:41 29° N 16:58:50 17° NE
UNK 3.8 16:54:10 10° NNE 16:58:43 60° ESE 17:03:13 10° S
CZ-4C R/B 3.6 16:52:16 10° NW 16:59:08 62° SW 17:07:36 10° SSE
Cosmos 1484 Rocket 3.8 16:56:39 10° S 17:00:00 43° W 17:03:22 10° NNW
Radarsat 4.5 16:55:52 10° SSE 17:01:02 78° ENE 17:06:14 10° NNW
Cosmos 1743 3.9 16:58:03 10° NNW 17:01:06 37° W 17:04:06 10° SSW
Thor Agena Rocket 3.7 16:55:59 10° SSE 17:01:12 82° WSW 17:06:22 10° NNW
IRS-P3 4.2 16:58:44 10° SE 17:03:53 53° ENE 17:09:03 10° N
NOSS 2-3 (D) 3.7 17:01:25 10° SSW 17:04:54 42° SE 17:07:03 21° ENE
NOSS 2-3 (E) 3.6 17:02:03 10° SSW 17:05:33 45° SE 17:07:43 21° ENE
Cosmos 1354 Rocket 4.0 17:01:07 10° SSW 17:06:22 77° ESE 17:11:37 10° NNE
IGS 5A 4.3 17:03:38 10° S 17:07:29 50° W 17:11:23 10° NNW
NOSS 2-2 (D) 4.4 17:05:31 10° W 17:08:10 25° NW 17:10:10 14° NNE
Cosmos 1777 Rocket 4.3 17:03:24 10° SW 17:08:37 67° WNW 17:13:51 10° NNE
Cosmos 2151 3.9 17:05:09 10° NNW 17:09:12 50° W 17:13:13 10° S
Cosmos-2242 4.0 17:06:27 10° SE 17:09:56 25° E 17:11:23 21° ENE
USA 238 DEB 3.9 17:04:36 10° S 17:10:19 44° ESE 17:14:48 18° ENE
USA 238 4.0 17:04:43 10° S 17:10:26 43° ESE 17:14:54 18° ENE
MOS 1 Rocket 3.5 17:05:52 10° SSE 17:10:48 63° ENE 17:16:01 10° N
Cosmos 1898 Rocket 4.3 17:09:48 10° SSE 17:14:13 30° E 17:16:31 21° ENE
Gbstr 26 Del rocket 2.9 17:10:24 10° WSW 17:14:27 61° SSE 17:16:29 25° E
Cosmos 1726 Rocket 3.7 17:10:57 10° S 17:15:31 62° E 17:20:03 10° NNE
Cosmos 372 Rocket 4.5 17:12:06 10° S 17:16:48 37° ESE 17:19:40 21° NE
ERS-1 4.3 17:11:55 10° SSE 17:16:54 76° ENE 17:21:52 10° NNW
USA 215 3.6 17:12:07 18° ENE 17:16:55 52° N 17:23:14 10° WNW
Cosmos 2082 3.9 17:12:11 10° NNW 17:17:46 50° NE 17:23:19 10° SE
AQUARIUS 4.0 17:14:00 10° SSE 17:18:23 74° ENE 17:22:48 10° N
SMAP 3.5 17:15:07 10° S 17:19:44 67° WSW 17:24:24 10° NNW
Cosmos 1805 3.5 17:17:12 10° N 17:20:17 32° ENE 17:23:21 10° SE
Cosmos 2297 Rocket 4.4 17:16:26 10° NW 17:21:15 29° WSW 17:26:01 10° SSW
GEOS 3 Rocket 3.7 17:19:10 19° NE 17:23:00 66° SE 17:28:21 10° SSW
Landsat 7 3.9 17:19:12 10° S 17:23:51 77° WSW 17:28:32 10° NNW
YAOGAN 1 3.0 17:22:44 10° SE 17:26:38 37° ENE 17:30:34 10° N
Cosmos 923 Rocket 4.3 17:21:49 10° NNW 17:26:48 43° ENE 17:31:43 10° SE
Cosmos 1937 Rocket 4.3 17:25:19 10° SSE 17:29:46 30° E 17:30:51 27° E
SL-16 R/B 4.1 17:28:39 10° SE 17:29:26 12° ESE 17:29:26 12° ESE
Cosmos 990 Rocket 4.1 17:28:38 10° SSW 17:33:45 77° WNW 17:38:14 14° NNE
Cosmos 1461 3.9 17:30:31 10° WSW 17:34:10 36° NW 17:36:23 20° NNE
SL-16 R/B 3.4 17:28:42 10° N 17:34:40 49° WNW 17:40:34 10° SW
CZ-2D R/B 3.6 17:30:39 10° SE 17:34:41 50° ENE 17:38:41 10° N
Cosmos 1244 Rocket 4.5 17:30:22 10° N 17:36:35 58° ENE 17:42:40 10° SSE
SKYMED 2 3.9 17:35:14 29° NE 17:36:58 44° E 17:41:08 10° S
COSMOS 2455 3.9 17:33:43 10° SSE 17:38:22 24° ESE 17:38:36 24° ESE
Meteor 2-2 Rocket 4.4 17:33:22 10° SSE 17:38:44 47° E 17:42:46 17° NNE
Okean 1 3.9 17:35:50 10° SSE 17:38:21 32° ESE 17:38:21 32° ESE
Cosmos 1844 Rocket 3.2 17:39:33 10° NNW 17:44:46 36° NE 17:45:49 33° ENE
Cosmos 2219 3.2 17:39:11 10° NNW 17:44:58 87° ENE 17:50:44 10° SSE
Cosmos 1980 Rocket 2.1 17:40:31 10° SSW 17:46:08 72° ESE 17:49:21 26° NE
Cosmos 1953 Rocket 3.9 17:42:42 10° NNW 17:47:08 69° W 17:51:33 10° S
SL-08 R/B 4.5 17:41:31 10° N 17:47:47 59° ENE 17:54:01 10° SSE
Aureole 1 Rocket 3.4 17:43:25 10° SSW 17:48:04 74° ESE 17:51:47 23° NNE
Meteor 1-26 Rocket 4.1 17:44:03 10° S 17:49:18 57° E 17:52:48 21° NNE
PSLV R/B 3.4 17:50:00 44° ESE 17:50:47 52° ENE 17:54:45 10° N
ARIANE 5 R/B 3.6 17:48:02 10° S 17:52:54 47° W 17:57:53 10° NNW
Cosmos 2263 Rocket 2.8 17:47:30 10° NW 17:53:06 60° WSW 17:58:40 10° S
SL-19 R/B 4.2 17:48:21 10° SSE 17:53:43 63° ENE 17:59:26 10° NNW
BREEZE-M DEB (TANK) 3.9 17:54:39 10° SW 17:57:14 23° S 17:57:14 23° S
COSMO-SKYMED 1 3.0 17:59:08 41° SE 17:59:08 41° SE 18:02:17 10° S
Cosmos 1680 Rocket 3.5 17:53:23 10° NNW 17:58:32 56° ENE 18:00:24 36° ESE
BREEZE-M DEB (TANK) 4.1 17:55:56 10° W 17:59:36 69° SSW 18:06:53 20° ESE
NOSS 3-2 (C) 4.0 17:54:48 10° WSW 17:59:56 47° NNW 18:03:20 24° NNE
NOAA 15 4.5 17:55:48 10° SSE 18:01:05 84° ENE 18:06:24 10° NNW
Meteor 2-10 4.3 17:56:37 10° NNW 18:02:00 73° W 18:07:32 10° S
NOAA 6 3.9 17:58:02 10° SSE 18:03:03 60° ENE 18:08:05 10° N
Cosmos 2369 3.7 17:58:14 10° S 18:03:49 58° ESE 18:05:20 44° ENE
Cosmos 1943 Rocket 4.3 18:03:41 10° N 18:04:10 10° N 18:04:10 10° N
Resurs 01 Rocket 4.0 18:11:53 12° N 18:11:53 12° N 18:12:10 10° N
USA 81 4.4 18:05:53 10° N 18:11:07 67° W 18:16:19 10° S
Cosmos 44 Rocket 3.5 18:06:48 10° NW 18:11:50 54° NE 18:11:53 54° NE
Cosmos 2227 Rocket 4.4 18:08:16 10° NW 18:12:52 26° WSW 18:17:27 10° SSW
SPOT 1/Viking Rocket 4.1 18:11:49 10° S 18:16:57 59° W 18:22:07 10° NNW
Cosmos 2058 Rocket 3.6 18:19:57 10° SSW 18:24:21 57° WNW 18:26:26 29° N
Cosmos 1697 Rocket 4.0 18:20:51 10° WSW 18:25:58 35° NW 18:29:16 20° N
USA 281 4.4 18:28:12 25° NNE 18:28:12 25° NNE 18:32:05 10° NNW
Cosmos 2333 Rocket 4.2 18:28:41 10° SSE 18:29:35 14° SSE 18:29:35 14° SSE
CENTAUR R/B 4.0 18:27:38 10° WNW 18:33:43 31° N 18:35:36 28° NNE
Meteor 2-11 Rocket 4.4 18:27:53 10° NNW 18:34:05 83° W 18:40:14 10° S
Lacrosse 5 rocket 3.1 18:30:52 10° NW 18:32:26 21° NW 18:32:26 21° NW
Cosmos 2278 Rocket 4.4 18:31:47 10° N 18:32:43 12° N 18:32:43 12° N
Meteor 1-14 Rocket 4.1 18:32:31 10° NNW 18:38:20 83° ENE 18:39:10 66° SSE
Cosmos-2242 4.4 18:42:53 10° SW 18:46:49 36° WNW 18:47:46 32° NW
Cosmos 1844 4.0 18:50:10 10° NNW 18:54:37 58° NNW 18:54:37 58° NNW
Cosmos 1898 Rocket 4.3 18:51:02 10° SW 18:56:00 47° WNW 18:56:45 44° NNW
USA 215 3.3 18:59:28 61° NNE 18:59:28 61° NNE 19:05:53 10° WNW
Cosmos 2112 Rocket 4.4 18:55:03 10° NNW 18:59:47 59° W 18:59:47 59° W
USA 238 DEB 4.0 18:54:57 10° WSW 19:01:06 56° NW 19:02:15 50° N
USA 238 4.0 18:55:03 10° WSW 19:01:12 56° NW 19:02:21 50° N
BREEZE-M DEB (TANK) 4.2 19:02:04 10° SW 19:06:16 37° SSW 19:06:16 37° SSW
Cosmos 1937 Rocket 4.4 19:06:28 10° SW 19:10:58 45° WNW 19:10:58 45° WNW
SL-16 R/B 3.8 19:09:02 10° SSW 19:11:20 25° SSW 19:11:20 25° SSW
Cosmos 1745 Rocket 4.4 19:10:02 10° NNW 19:16:05 59° W 19:22:04 10° S
COSMOS 2455 3.6 19:17:38 10° SW 19:21:47 46° SW 19:21:47 46° SW
Cosmos 1844 Rocket 3.7 19:23:23 10° NW 19:27:31 42° WNW 19:27:31 42° WNW
Cosmos 1980 Rocket 3.8 19:25:51 10° W 19:30:39 28° NW 19:31:07 27° NW
CENTAUR R/B 4.4 20:19:02 10° NW 20:22:41 29° NNW 20:22:41 29° NNW
